SAVONLINNA_(AUT) current weather conditions

sailwx.info

Wind from 280 at 14 knots gusting 25

Air temperature -3.0° C
Visibility: greater than 5.4 NM
Dewpoint -6.0° C

Last reported at 2017-Feb-20 04:20 UTC.
Time now 2017-Feb-20 06:22 UTC

Location: N 61°57' E 028°57'.
View on Google Maps.

See reports from other nearby stations

  
Tides and Currents Weather Stations Pressure Air Temp Water Temp Dewpoint Dewpoint Depression Visibility Wind Speed Wind Dir Waves Ship Positions
date/time (UTC)wind fromknots sea level pressurealtimeterstation pressurevisibilityair tempwater tempwave heightnotes
2017-Feb-20 05:20 280 12 5.4-3.0
2017-Feb-20 04:50 280 12 5.4-3.0
2017-Feb-20 04:20 280 14 gusting 25 5.4-3.0
2017-Feb-20 03:50 280 17 5.4-2.0
2017-Feb-20 03:20 280 17 gusting 27 5.4-2.0
2017-Feb-20 02:50 280 17 gusting 27 5.4-2.0
2017-Feb-20 02:20 270 17 5.4-2.0
2017-Feb-20 01:50 280 17 gusting 32 5.4-1.0 Light snow showers.
2017-Feb-20 01:20 280 18 gusting 28 5.4-1.0
2017-Feb-20 00:50 270 17 gusting 28 1.9-0.0 Light snow showers.
2017-Feb-20 00:20 270 17 2.3 1.0 Light rain showers.
2017-Feb-19 23:50 270 13 5.4 2.0
2017-Feb-19 23:20 250 9 5.4 2.0 Light rain showers.
2017-Feb-19 22:50 230 8 3.2 2.0 Light rain.
2017-Feb-19 22:20 230 7 3.8 2.0 Light rain.
2017-Feb-19 21:50 220 8 5.4 2.0 Light rain.
2017-Feb-19 21:20 220 8 5.4 2.0 Light rain.
2017-Feb-19 20:50 220 8 5.4 2.0 Light rain.
2017-Feb-19 20:20 210 6 4.9 2.0 Light rain.
2017-Feb-19 19:50 220 6 5.4 1.0 Light rain.
2017-Feb-19 19:20 220 6 5.4 1.0 Light rain.
2017-Feb-19 18:50 230 6 4.9 1.0 Light rain.
2017-Feb-19 18:20 220 6 2.7 1.0 Light rain.
2017-Feb-19 17:50 220 5 1.5 1.0 Light rain. Mist.
2017-Feb-19 17:20 230 4 1.1 1.0 Light ice pellets. Mist.
2017-Feb-19 16:50 220 4 3.2-0.0 Light rain showers.
2017-Feb-19 16:20 220 4 2.4-0.0 Light rain showers. Mist.
2017-Feb-19 15:50 230 4 2.7-0.0 Light rain.
2017-Feb-19 15:20 230 4 5.4-0.0 Snow grains.
2017-Feb-19 14:50 220 4 5.4-0.0 Light rain.
2017-Feb-19 14:20 220 4 2.7-0.0 Light rain snow.
2017-Feb-19 13:50 220 1 1.3-0.0 Light rain snow.
2017-Feb-19 13:20 230 2 1.1-0.0 Rain.
2017-Feb-19 12:50 1.8-0.0 Light rain.
2017-Feb-19 12:20 220 1 2.1-0.0 Light rain.
2017-Feb-19 11:50 210 1 1.7-0.0 Light rain.
2017-Feb-19 11:20 210 1 1.1-0.0 Light rain.
2017-Feb-19 10:50 210 1 1.1-0.0 Light rain.
2017-Feb-19 10:20 210 4 2.1-0.0 Light rain.
2017-Feb-19 09:50 200 4 1.0-0.0 Light rain.
2017-Feb-19 09:20 200 4 1.5-0.0 Light rain snow.
2017-Feb-19 08:50 190 4 2.4-0.0 Light rain snow.
2017-Feb-19 08:20 200 5 2.7-0.0 Light rain snow.
2017-Feb-19 07:50 200 5 2.7-0.0 Light rain snow.
2017-Feb-19 07:20 190 4 1.6-0.0 Light snow.
2017-Feb-19 06:50 190 4 1.9-0.0 Light snow.
2017-Feb-19 06:20 190 5 1.2-0.0 Light snow.
2017-Feb-19 05:50 190 5 1.0-1.0 Light snow.
2017-Feb-19 05:20 170 5 1.1-1.0 Light snow.
2017-Feb-19 04:50 160 4 1.0-1.0 Snow.
2017-Feb-19 04:20 160 5 0.8-1.0 Snow.
2017-Feb-19 03:50 170 5 1.1-1.0 Light snow.
2017-Feb-19 03:20 140 6 1.0-1.0 Snow.
2017-Feb-19 02:50 130 5 0.6-2.0 Snow.
2017-Feb-19 02:20 140 5 0.5-2.0 Snow.
2017-Feb-19 01:50 140 4 1.2-2.0 Light snow.
2017-Feb-19 01:20 140 4 2.7-2.0 Light snow.
2017-Feb-19 00:50 130 2 4.3-3.0 Light snow.
2017-Feb-19 00:20 150 2 2.6-2.0 Light snow.
2017-Feb-18 23:50 160 1 5.4-2.0 Light snow.
2017-Feb-18 23:20 170 2 5.4-2.0
2017-Feb-18 22:50 150 0 5.4-3.0
2017-Feb-18 22:20 170 1 5.4-4.0
2017-Feb-18 21:50 5.4-6.0
2017-Feb-18 21:20 5.4-6.0
2017-Feb-18 20:50 110 1 5.4-6.0
2017-Feb-18 20:20 120 0 5.4-5.0
2017-Feb-18 19:50 5.4-5.0
2017-Feb-18 19:20 210 1 5.4-3.0
2017-Feb-18 18:50 230 4 5.4-3.0
2017-Feb-18 18:20 220 4 5.4-3.0
2017-Feb-18 16:20 310 2 5.4-2.0
2017-Feb-18 15:50 260 6 5.4-1.0
2017-Feb-18 15:20 300 4 5.4-1.0
2017-Feb-18 14:50 280 7 5.4-1.0
2017-Feb-18 14:20 280 9 5.4-0.0
2017-Feb-18 13:50 290 9 5.4 1.0
2017-Feb-18 13:20 280 9 5.4 1.0
2017-Feb-18 12:50 270 13 5.4 1.0 Light snow showers.
2017-Feb-18 12:20 260 11 5.4 1.0
2017-Feb-18 11:50 270 11 5.4-0.0
2017-Feb-18 11:20 260 11 5.4-0.0 Light snow showers.
2017-Feb-18 10:50 260 11 2.2-0.0
2017-Feb-18 10:20 250 8 5.4-0.0
2017-Feb-18 09:50 250 7 5.4-0.0
2017-Feb-18 09:20 260 8 5.4-1.0
2017-Feb-18 08:50 260 7 5.4-1.0
2017-Feb-18 08:20 250 7 5.4-2.0
2017-Feb-18 07:50 250 8 5.4-2.0
2017-Feb-18 07:20 260 9 5.4-2.0
2017-Feb-18 06:50 250 6 5.4-3.0
2017-Feb-18 06:20 240 6 5.4-3.0